• In Schweiz
  • Länderverzeichnis
  • Für 7 Tage
  • Wassertemperatur
  • Satellitenkarten
  • Wetterkarte
  • Widgets
  • user-avatar
    Anmelden

    Stündliche Wetter Auckland

    Heute, 24 November, Freitag

    Zeit Temperatur Niederschläge Wind Luftdruck Luftfeuchtigkeit
    00:00 +15°C° 0 mm 1 m/S 770 mmHg 94%
    01:00 +14°C° 0 mm 1 m/S 770 mmHg 94%
    02:00 +14°C° 0 mm 1 m/S 770 mmHg 94%
    03:00 +14°C° 0 mm 1 m/S 770 mmHg 94%
    04:00 +14°C° 0 mm 1 m/S 770 mmHg 92%
    05:00 +14°C° 0 mm 0 m/S 770 mmHg 90%
    06:00 +15°C° 0 mm 1 m/S 770 mmHg 85%
    07:00 +19°C° 0 mm 1 m/S 770 mmHg 73%
    08:00 +20°C° 0 mm 2 m/S 770 mmHg 62%
    09:00 +24°C° 0 mm 2 m/S 770 mmHg 50%
    10:00 +25°C° 0 mm 2 m/S 770 mmHg 47%
    11:00 +27°C° 0 mm 3 m/S 769 mmHg 43%
    12:00 +26°C° 0 mm 3 m/S 770 mmHg 43%
    13:00 +27°C° 0 mm 3 m/S 769 mmHg 43%
    14:00 +27°C° 0 mm 3 m/S 769 mmHg 42%
    15:00 +27°C° 0 mm 3 m/S 768 mmHg 42%
    16:00 +25°C° 0 mm 3 m/S 768 mmHg 48%
    17:00 +24°C° 0 mm 3 m/S 768 mmHg 54%
    18:00 +21°C° 0 mm 3 m/S 768 mmHg 60%
    19:00 +19°C° 0 mm 3 m/S 768 mmHg 69%
    20:00 +18°C° 0 mm 3 m/S 768 mmHg 78%
    21:00 +16°C° 0 mm 2 m/S 769 mmHg 87%
    22:00 +16°C° 0 mm 2 m/S 769 mmHg 89%
    23:00 +15°C° 0 mm 2 m/S 769 mmHg 91%

    Morgen, 25 November, Samstag

    Zeit Temperatur Niederschläge Wind Luftdruck Luftfeuchtigkeit
    00:00 +15°C° 0 mm 2 m/S 769 mmHg 93%
    01:00 +15°C° 0 mm 2 m/S 769 mmHg 94%
    02:00 +15°C° 0 mm 2 m/S 769 mmHg 94%
    03:00 +15°C° 0 mm 1 m/S 768 mmHg 95%
    04:00 +15°C° 0 mm 1 m/S 768 mmHg 93%
    05:00 +15°C° 0 mm 1 m/S 768 mmHg 90%
    06:00 +16°C° 0 mm 1 m/S 768 mmHg 88%
    07:00 +19°C° 0 mm 1 m/S 769 mmHg 78%
    08:00 +21°C° 0 mm 1 m/S 769 mmHg 68%
    09:00 +23°C° 0 mm 1 m/S 769 mmHg 57%
    10:00 +24°C° 0 mm 2 m/S 769 mmHg 54%
    11:00 +25°C° 0 mm 2 m/S 768 mmHg 50%
    12:00 +26°C° 0 mm 3 m/S 768 mmHg 46%
    13:00 +25°C° 0 mm 3 m/S 768 mmHg 50%
    14:00 +25°C° 0 mm 3 m/S 768 mmHg 53%
    15:00 +23°C° 0 mm 4 m/S 768 mmHg 57%
    16:00 +22°C° 0 mm 3 m/S 767 mmHg 60%
    17:00 +21°C° 0 mm 3 m/S 767 mmHg 63%
    18:00 +20°C° 0 mm 3 m/S 767 mmHg 66%
    19:00 +19°C° 0 mm 3 m/S 767 mmHg 71%
    20:00 +18°C° 0 mm 2 m/S 768 mmHg 75%
    21:00 +17°C° 0 mm 2 m/S 768 mmHg 80%
    22:00 +17°C° 0 mm 2 m/S 768 mmHg 80%
    23:00 +18°C° 0 mm 1 m/S 768 mmHg 81%

    übermorgen, 26 November, Sonntag

    Zeit Temperatur Niederschläge Wind Luftdruck Luftfeuchtigkeit
    00:00 +18°C° 0 mm 1 m/S 768 mmHg 81%
    01:00 +16°C° 0 mm 1 m/S 768 mmHg 82%
    02:00 +16°C° 0 mm 1 m/S 768 mmHg 83%
    03:00 +16°C° 0 mm 1 m/S 767 mmHg 84%
    04:00 +16°C° 0 mm 1 m/S 768 mmHg 84%
    05:00 +16°C° 0 mm 1 m/S 768 mmHg 84%
    06:00 +16°C° 0 mm 1 m/S 768 mmHg 84%
    07:00 +19°C° 0 mm 1 m/S 768 mmHg 76%
    08:00 +20°C° 0 mm 2 m/S 768 mmHg 68%
    09:00 +21°C° 0 mm 2 m/S 768 mmHg 60%
    10:00 +23°C° 0 mm 2 m/S 768 mmHg 56%
    11:00 +24°C° 0 mm 2 m/S 768 mmHg 53%
    12:00 +25°C° 0 mm 2 m/S 768 mmHg 49%
    13:00 +25°C° 0 mm 2 m/S 768 mmHg 53%
    14:00 +24°C° 0 mm 2 m/S 767 mmHg 56%
    15:00 +22°C° 0 mm 3 m/S 767 mmHg 60%
    16:00 +21°C° 0 mm 3 m/S 767 mmHg 65%
    17:00 +20°C° 0 mm 3 m/S 767 mmHg 71%
    18:00 +19°C° 0 mm 3 m/S 767 mmHg 76%
    19:00 +18°C° 0 mm 3 m/S 768 mmHg 80%
    20:00 +18°C° 0 mm 3 m/S 768 mmHg 84%
    21:00 +17°C° 0 mm 3 m/S 768 mmHg 87%
    22:00 +16°C° 0 mm 3 m/S 768 mmHg 89%
    23:00 +16°C° 0 mm 3 m/S 769 mmHg 91%

    27 November, Montag

    Zeit Temperatur Niederschläge Wind Luftdruck Luftfeuchtigkeit
    00:00 +14°C° 0 mm 3 m/S 769 mmHg 92%
    01:00 +14°C° 0 mm 3 m/S 768 mmHg 93%
    02:00 +14°C° 0 mm 3 m/S 768 mmHg 95%
    03:00 +13°C° 0 mm 3 m/S 768 mmHg 96%
    04:00 +13°C° 0 mm 3 m/S 768 mmHg 95%
    05:00 +14°C° 0 mm 3 m/S 768 mmHg 93%
    06:00 +14°C° 0 mm 3 m/S 768 mmHg 92%
    07:00 +17°C° 0 mm 3 m/S 769 mmHg 81%
    08:00 +19°C° 0 mm 3 m/S 769 mmHg 69%
    09:00 +21°C° 0 mm 3 m/S 769 mmHg 57%
    10:00 +21°C° 0 mm 3 m/S 769 mmHg 58%
    11:00 +23°C° 0 mm 2 m/S 769 mmHg 59%
    12:00 +23°C° 0 mm 2 m/S 769 mmHg 59%
    13:00 +23°C° 0 mm 2 m/S 769 mmHg 57%
    14:00 +23°C° 0 mm 2 m/S 769 mmHg 54%
    15:00 +24°C° 0 mm 2 m/S 768 mmHg 51%
    16:00 +22°C° 0 mm 3 m/S 768 mmHg 54%
    17:00 +22°C° 0 mm 3 m/S 768 mmHg 58%
    18:00 +21°C° 0 mm 3 m/S 768 mmHg 61%
    19:00 +20°C° 0 mm 3 m/S 769 mmHg 67%
    20:00 +19°C° 0 mm 3 m/S 770 mmHg 73%
    21:00 +17°C° 0 mm 3 m/S 770 mmHg 78%
    22:00 +17°C° 0 mm 3 m/S 770 mmHg 82%
    23:00 +16°C° 0 mm 3 m/S 770 mmHg 86%

    28 November, Dienstag

    Zeit Temperatur Niederschläge Wind Luftdruck Luftfeuchtigkeit
    00:00 +15°C° 0 mm 2 m/S 771 mmHg 90%
    01:00 +14°C° 0 mm 3 m/S 770 mmHg 91%
    02:00 +14°C° 0 mm 3 m/S 770 mmHg 92%
    03:00 +14°C° 0 mm 3 m/S 770 mmHg 92%
    04:00 +14°C° 0 mm 3 m/S 770 mmHg 91%
    05:00 +14°C° 0 mm 3 m/S 770 mmHg 89%
    06:00 +14°C° 0 mm 3 m/S 771 mmHg 88%
    07:00 +17°C° 0 mm 3 m/S 771 mmHg 78%
    08:00 +19°C° 0 mm 3 m/S 771 mmHg 69%
    09:00 +21°C° 0 mm 3 m/S 771 mmHg 59%
    10:00 +22°C° 0 mm 3 m/S 771 mmHg 55%
    11:00 +24°C° 0 mm 2 m/S 771 mmHg 52%
    12:00 +25°C° 0 mm 2 m/S 770 mmHg 49%
    13:00 +25°C° 0 mm 2 m/S 770 mmHg 50%
    14:00 +25°C° 0 mm 2 m/S 770 mmHg 50%
    15:00 +25°C° 0 mm 2 m/S 769 mmHg 51%
    16:00 +24°C° 0 mm 2 m/S 769 mmHg 56%
    17:00 +23°C° 0 mm 2 m/S 769 mmHg 62%
    18:00 +21°C° 0 mm 2 m/S 769 mmHg 67%
    19:00 +20°C° 0 mm 2 m/S 770 mmHg 73%
    20:00 +19°C° 0 mm 2 m/S 770 mmHg 79%
    21:00 +17°C° 0 mm 2 m/S 771 mmHg 85%
    22:00 +17°C° 0 mm 2 m/S 771 mmHg 86%
    23:00 +17°C° 0 mm 2 m/S 771 mmHg 88%

    29 November, Mittwoch

    Zeit Temperatur Niederschläge Wind Luftdruck Luftfeuchtigkeit
    00:00 +16°C° 0 mm 2 m/S 770 mmHg 90%
    01:00 +16°C° 0 mm 2 m/S 770 mmHg 90%
    02:00 +16°C° 0 mm 2 m/S 770 mmHg 90%
    03:00 +16°C° 0 mm 1 m/S 769 mmHg 90%
    04:00 +16°C° 0 mm 1 m/S 769 mmHg 89%
    05:00 +16°C° 0 mm 1 m/S 770 mmHg 89%
    06:00 +16°C° 0 mm 1 m/S 770 mmHg 88%
    07:00 +19°C° 0 mm 1 m/S 770 mmHg 81%
    08:00 +20°C° 0 mm 1 m/S 770 mmHg 73%
    09:00 +22°C° 0 mm 1 m/S 770 mmHg 66%
    10:00 +23°C° 0 mm 1 m/S 770 mmHg 62%
    11:00 +24°C° 0 mm 1 m/S 769 mmHg 58%
    12:00 +25°C° 0 mm 1 m/S 769 mmHg 54%
    13:00 +24°C° 0 mm 1 m/S 769 mmHg 58%
    14:00 +23°C° 0 mm 2 m/S 768 mmHg 62%
    15:00 +21°C° 0 mm 2 m/S 768 mmHg 66%
    16:00 +20°C° 0,1 mm 2 m/S 768 mmHg 71%
    17:00 +20°C° 0,1 mm 2 m/S 768 mmHg 76%
    18:00 +19°C° 0,1 mm 2 m/S 768 mmHg 81%
    19:00 +18°C° 0 mm 2 m/S 768 mmHg 82%
    20:00 +18°C° 0 mm 2 m/S 769 mmHg 84%
    21:00 +18°C° 0 mm 1 m/S 769 mmHg 85%
    22:00 +18°C° 0 mm 1 m/S 769 mmHg 86%
    23:00 +16°C° 0 mm 1 m/S 769 mmHg 86%
    Mehr zeigen